This is the latest recevied weather packets stored in our database for station/object N4PWG. If no packets are shown the sender has not sent any weather packets the latest 10 day(s).
| Time | Temp. | Humidity | Pressure | Rain* | Wind** | Luminosity | Snow |
|---|---|---|---|---|---|---|---|
| 1777648628 | 15.56° C | 54% | 1035.5 hPa | 0 mm | - | 557 W/m² | - |
| 1777648324 | 15.56° C | 53% | 1035.3 hPa | 0 mm | - | 538 W/m² | - |
| 1777648020 | 16.11° C | 52% | 1035.3 hPa | 0 mm | - | 495 W/m² | - |
| 1777647717 | 15.56° C | 50% | 1035.3 hPa | 0 mm | - | 469 W/m² | - |
| 1777647413 | 15.56° C | 59% | 1035.4 hPa | 0 mm | - | 434 W/m² | - |
| 1777647111 | 15.56° C | 58% | 1035.4 hPa | 0 mm | - | 471 W/m² | - |
| 1777646807 | 15° C | 62% | 1035.2 hPa | 0 mm | - | 445 W/m² | - |
| 1777646502 | 15° C | 59% | 1035.2 hPa | 0 mm | - | 466 W/m² | - |
| 1777646198 | 14.44° C | 62% | 1035.2 hPa | 0 mm | - | 386 W/m² | - |
| 1777645896 | 14.44° C | 60% | 1035.2 hPa | 0 mm | - | 401 W/m² | - |
| 1777645593 | 15° C | 61% | 1034.9 hPa | 0 mm | - | 340 W/m² | - |
| 1777645289 | 14.44° C | 65% | 1035 hPa | 0 mm | - | 364 W/m² | - |
| 1777644985 | 14.44° C | 64% | 1034.9 hPa | 0 mm | - | 336 W/m² | - |
| 1777644683 | 14.44° C | 66% | 1034.8 hPa | 0 mm | - | 302 W/m² | - |
| 1777644378 | 14.44° C | 65% | 1034.9 hPa | 0 mm | - | 361 W/m² | - |
| 1777644075 | 13.89° C | 67% | 1034.9 hPa | 0 mm | - | 300 W/m² | - |
| 1777643772 | 13.89° C | 68% | 1034.5 hPa | 0 mm | - | 286 W/m² | - |
| 1777643470 | 13.89° C | 71% | 1034.3 hPa | 0 mm | - | 326 W/m² | - |
| 1777643166 | 14.44° C | 73% | 1034.8 hPa | 0 mm | - | 336 W/m² | - |
| 1777642862 | 13.89° C | 72% | 1034.9 hPa | 0 mm | - | 311 W/m² | - |
| 1777642560 | 13.89° C | 74% | 1034.7 hPa | 0 mm | - | 284 W/m² | - |
| 1777642256 | 13.89° C | 77% | 1034.7 hPa | 0 mm | - | 214 W/m² | - |
| 1777641953 | 13.89° C | 79% | 1034.7 hPa | 0 mm | - | 242 W/m² | - |
| 1777641649 | 13.33° C | 80% | 1034.7 hPa | 0 mm | - | 204 W/m² | - |
| 1777641344 | 13.33° C | 80% | 1034.3 hPa | 0 mm | - | 214 W/m² | - |
* Rain latest hour (hover to see other rain measurements)
** Current wind speed in m/s (hover to see current wind gust speed)